Weather History for Orangeburg, SC

Change the Weather History Date:

Thursday, November 4, 2010

  Actual Average Record
Temperature  
Mean Temperature 56 °F 59 °F  
Max Temperature 59 °F 72 °F 87 °F (1961)
Min Temperature 53 °F 47 °F 24 °F (1954)
Degree Days  
Heating Degree Days 9 7  
Month to date heating degree days 33 25  
Since 1 July heating degree days 85 115  
Cooling Degree Days 0 1  
Month to date cooling degree days 0 4  
Year to date cooling degree days 2506 2091  
Growing Degree Days 6 (Base 50)    
Moisture  
Dew Point 54 °F    
Average Humidity 94    
Maximum Humidity 100    
Minimum Humidity 80    
Precipitation  
Precipitation 0.78 in 0.08 in 1.61 in (1992)
Month to date precipitation 0.78 0.30  
Year to date precipitation 37.76 40.79  
Sea Level Pressure  
Sea Level Pressure 29.65 in    
Wind  
Wind Speed 3 mph (NW)    
Max Wind Speed 13 mph    
Max Gust Speed 18 mph    
Visibility 5 miles    
Events Fog , Rain    
T = Trace of Precipitation, MM = Missing Value Source: NWS Daily Summary

Daily Weather History Graph

Daily Weather History Graph

Search for Another Location

Airport:

Trip Planner

Search our weather history database for the weather conditions in past years. The results will help you decide how hot, cold, wet, or windy it might be!

Date:

Astronomy

Nov. 04, 2010 Rise Set
Actual Time 7:44 AM EDT 6:28 PM EDT
Civil Twilight 7:18 AM EDT 6:54 PM EDT
Nautical Twilight 6:49 AM EDT 7:24 PM EDT
Astronomical Twilight 6:20 AM EDT 7:53 PM EDT
Moon 5:57 AM EDT (11/4) 5:11 PM EDT (11/4)
Length of Visible Light 11h 35m
Length of Day
10h 44m
Waning Crescent, 3% of the Moon is Illuminated
Nov 4
Waning Crescent
Nov 6
New
Nov 13
First Quarter
Nov 21
Full
Nov 28
Last Quarter

Hourly Weather History & Observations

Time (EDT) Temp. Dew Point Humidity Pressure Visibility Wind Dir Wind Speed Gust Speed Precip Events Conditions
12:53 AM 55.9 °F 54.0 °F 93% 29.84 in 2.5 mi Calm Calm - N/A   Overcast
1:01 AM 55.4 °F 53.6 °F 94% 29.84 in 3.0 mi Calm Calm - N/A   Overcast
1:32 AM 55.4 °F 53.6 °F 94% 29.82 in 2.0 mi Calm Calm - N/A   Overcast
1:38 AM 55.4 °F 53.6 °F 94% 29.82 in 1.5 mi Calm Calm - N/A   Overcast
1:53 AM 55.0 °F 54.0 °F 96% 29.82 in 0.8 mi Calm Calm - N/A   Overcast
2:53 AM 55.0 °F 54.0 °F 96% 29.78 in 0.8 mi Calm Calm - N/A   Overcast
3:53 AM 55.9 °F 55.0 °F 97% 29.75 in 0.5 mi Calm Calm - 0.00 in Fog Fog
4:53 AM 55.9 °F 55.0 °F 97% 29.71 in 0.8 mi Calm Calm - N/A   Mist
5:01 AM 55.4 °F 55.4 °F 100% 29.71 in 1.0 mi South 3.5 mph - N/A   Overcast
5:08 AM 55.4 °F 55.4 °F 100% 29.71 in 0.8 mi Calm Calm - N/A   Overcast
5:22 AM 55.4 °F 55.4 °F 100% 29.70 in 1.0 mi South 3.5 mph - N/A   Overcast
5:30 AM 55.4 °F 55.4 °F 100% 29.70 in 0.8 mi South 3.5 mph - N/A   Overcast
5:53 AM 55.9 °F 55.0 °F 97% 29.69 in 0.8 mi Calm Calm - N/A   Overcast
6:37 AM 55.4 °F 55.4 °F 100% 29.67 in 1.8 mi South 3.5 mph - N/A   Overcast
6:42 AM 55.4 °F 55.4 °F 100% 29.66 in 3.0 mi Calm Calm - N/A   Overcast
6:53 AM 55.9 °F 55.0 °F 97% 29.65 in 3.0 mi Calm Calm - N/A   Overcast
7:01 AM 55.4 °F 55.4 °F 100% 29.65 in 2.0 mi Calm Calm - N/A   Overcast
7:14 AM 55.4 °F 55.4 °F 100% 29.64 in 4.0 mi Calm Calm - N/A   Overcast
7:53 AM 55.9 °F 55.0 °F 97% 29.62 in 4.0 mi Calm Calm - 0.00 in   Overcast
8:13 AM 55.4 °F 55.4 °F 100% 29.63 in 2.5 mi Calm Calm - N/A   Overcast
8:37 AM 57.2 °F 55.4 °F 94% 29.62 in 3.0 mi Calm Calm - N/A   Overcast
8:45 AM 57.2 °F 55.4 °F 94% 29.63 in 2.0 mi Calm Calm - 0.03 in Rain Light Rain
8:53 AM 57.0 °F 55.0 °F 93% 29.62 in 4.0 mi Calm Calm - 0.03 in Rain Light Rain
8:59 AM 57.2 °F 55.4 °F 94% 29.63 in 1.5 mi Calm Calm - 0.06 in Rain Light Rain
9:08 AM 57.2 °F 55.4 °F 94% 29.62 in 0.8 mi East 3.5 mph - 0.12 in Rain Rain
9:12 AM 57.2 °F 55.4 °F 94% 29.63 in 2.0 mi South 3.5 mph - 0.13 in Rain Light Rain
9:14 AM 57.2 °F 55.4 °F 94% 29.62 in 1.5 mi Calm Calm - 0.19 in Rain Light Rain
9:25 AM 57.2 °F 55.4 °F 94% 29.64 in 0.5 mi SSW 3.5 mph - 0.38 in Fog , Rain Heavy Rain
9:33 AM 57.2 °F 55.4 °F 94% 29.64 in 1.0 mi West 6.9 mph - 0.40 in Rain Rain
9:38 AM 57.2 °F 55.4 °F 94% 29.64 in 2.0 mi WNW 4.6 mph - 0.40 in Rain Light Rain
9:48 AM 57.2 °F 55.4 °F 94% 29.64 in 4.0 mi WNW 4.6 mph - 0.41 in Rain Light Rain
9:53 AM 57.0 °F 55.9 °F 96% 29.63 in 3.0 mi Calm Calm - 0.42 in Rain Rain
10:05 AM 57.2 °F 55.4 °F 94% 29.62 in 4.0 mi Calm Calm - 0.01 in Rain Light Rain
10:21 AM 57.2 °F 55.4 °F 94% 29.64 in 3.0 mi WNW 9.2 mph - 0.02 in Rain Light Rain
10:27 AM 57.2 °F 55.4 °F 94% 29.63 in 1.8 mi NNW 5.8 mph - 0.05 in Rain Rain
10:34 AM 57.2 °F 55.4 °F 94% 29.63 in 1.0 mi NNW 3.5 mph - 0.12 in Rain Heavy Rain
10:41 AM 57.2 °F 55.4 °F 94% 29.63 in 1.8 mi WNW 4.6 mph - 0.13 in Rain Rain
10:53 AM 57.0 °F 55.9 °F 96% 29.63 in 1.0 mi NW 8.1 mph - 0.21 in Rain Heavy Rain
11:01 AM 57.2 °F 55.4 °F 94% 29.62 in 2.0 mi NW 6.9 mph - 0.02 in Rain Light Rain
11:06 AM 57.2 °F 55.4 °F 94% 29.62 in 3.0 mi NW 6.9 mph - 0.03 in Rain Light Rain
11:15 AM 57.2 °F 55.4 °F 94% 29.62 in 6.0 mi NW 5.8 mph - 0.03 in Rain Light Rain
11:24 AM 57.2 °F 55.4 °F 94% 29.63 in 8.0 mi NW 6.9 mph - 0.03 in Rain Light Rain
11:31 AM 57.2 °F 55.4 °F 94% 29.62 in 10.0 mi NNW 4.6 mph - 0.03 in Rain Light Rain
11:51 AM 57.2 °F 55.4 °F 94% 29.62 in 10.0 mi NW 5.8 mph - 0.03 in   Overcast
11:53 AM 57.0 °F 55.0 °F 93% 29.62 in 10.0 mi NNW 5.8 mph - 0.03 in   Overcast
12:53 PM 57.0 °F 54.0 °F 89% 29.60 in 10.0 mi NNW 9.2 mph - 0.01 in   Overcast
1:53 PM 57.9 °F 53.1 °F 84% 29.57 in 10.0 mi NW 9.2 mph - N/A   Overcast
2:53 PM 57.9 °F 52.0 °F 81% 29.56 in 10.0 mi North 6.9 mph - N/A   Overcast
3:11 PM 57.2 °F 51.8 °F 82% 29.56 in 10.0 mi North 6.9 mph - N/A   Overcast
3:53 PM 57.0 °F 52.0 °F 83% 29.55 in 10.0 mi North 5.8 mph - N/A   Overcast
4:12 PM 57.2 °F 51.8 °F 82% 29.56 in 10.0 mi North 6.9 mph - N/A   Overcast
4:49 PM 55.4 °F 53.6 °F 94% 29.57 in 3.0 mi Calm Calm - 0.03 in Rain Rain
4:53 PM 55.9 °F 53.1 °F 90% 29.57 in 4.0 mi North 4.6 mph - 0.04 in Rain Rain
5:53 PM 55.0 °F 53.1 °F 93% 29.58 in 10.0 mi Calm Calm - 0.01 in   Overcast
6:02 PM 55.4 °F 53.6 °F 94% 29.59 in 10.0 mi NW 3.5 mph - N/A   Overcast
6:53 PM 55.0 °F 52.0 °F 89% 29.59 in 10.0 mi Calm Calm - N/A   Overcast
7:53 PM 55.0 °F 53.1 °F 93% 29.60 in 8.0 mi NNW 4.6 mph - 0.01 in Rain Light Rain
8:01 PM 55.4 °F 53.6 °F 94% 29.60 in 10.0 mi NNW 3.5 mph - 0.00 in Rain Light Rain
8:09 PM 55.4 °F 53.6 °F 94% 29.61 in 10.0 mi Calm Calm - 0.00 in   Overcast
8:53 PM 55.0 °F 53.1 °F 93% 29.62 in 10.0 mi NW 3.5 mph - 0.00 in   Overcast
9:53 PM 54.0 °F 52.0 °F 93% 29.62 in 10.0 mi Calm Calm - 0.01 in   Overcast
10:53 PM 54.0 °F 52.0 °F 93% 29.65 in 10.0 mi West 3.5 mph - 0.01 in   Overcast
11:53 PM 54.0 °F 52.0 °F 93% 29.65 in 10.0 mi WNW 3.5 mph - N/A   Overcast